CZ-6A DEB

Satellite information

Favourite Embed

Satellite Type and Status

DEBRISIN ORBIT

Key statistics

Satellite CZ-6A DEB at a glance.

Uptime

438

Days in orbit

Revolutions

≈ 14.3

Per day

Orbit

LEO

Low Earth Orbit

Inclination

89.0

Latest

Satellite identification and parameters

Extended collection of information and parameters for CZ-6A DEB.

Object identification

Identified? True

Debris? True

Object name: CZ-6A DEB

International designator: 2024-140GT

Object number (NORAD): 60816

Object ID (CCSDS): 60816

Country: PEOPLES REPUBLIC OF CHINA (PRC)

Current information (Y/N): Y

RCS size: SMALL

Orbital parameters

Period: 100.73 minutes

Inclination: 89.0458 deg

SMA: 7171.315 km

Apoapsis: 801.189 km

Periapsis: 785.171 km

RAAN: 303.7958 deg

Eccentricy: 0.00111687

Argument of periapsis: 281.6834 deg

Mean anomaly: 78.3108 deg

Mean motion: 14.29567166 rev/day

Mean motion (dot): 0.00003564 rev/day2

B* drag term: 0.0013878353 1/REarth

Two-line elements (TLE)

Creation date: Oct. 18, 2025, 2:17 a.m.

Reference frame: TEME

Reference center: EARTH

Epoch: Oct. 17, 2025, 7:56 p.m. UTC

TLE line 0: 0 CZ-6A DEB

TLE line 1: 1 60816U 24140GT 25290.83077341 .00003564 00000-0 13878-2 0 9990

TLE line 2: 2 60816 89.0458 303.7958 0011169 281.6834 78.3108 14.29567166 61575

Live tracking on map

Real-time ground track for satellite CZ-6A DEB.

In-orbit conjunctions

A list of the most updated potential collisions computed for object CZ-6A DEB.

Target Orbit TCA Probability of collision Miss distance Type
COSMOS 1954 LEO 2025-09-18 17:22:26 0.01052948 32.0 (m) PAYLOAD
FENGYUN 1C DEB SSO 2025-02-18 05:22:18 0.0002008153 304.0 (m) DEBRIS
SHIYAN 20A DEB LEO 2025-01-07 14:31:42 0.00082877 201.0 (m) DEBRIS
FENGYUN 1C DEB SSO 2024-12-04 04:58:56 0.0001946985 169.0 (m) DEBRIS
CZ-6A DEB LEO 2024-11-15 01:47:35 0.0005612584 858.0 (m) DEBRIS

Associated space launch

18 Low Earth Orbit communication satellites with Ku, Q and V band payloads for the G60 constellation operated by Shanghai Spacecom Satellite Technology (SSST) with funding backed by the Shanghai local government. Initial constellation will consist of 1296 satellites by 2027 with long term plans to expand it to 12000 satellites.

CZ-6A DEB was lifted into orbit during the mission ‘Long March 6A | G60 Polar Group 01’, on board a Long March 6A space rocket.

The launch took place on Aug. 6, 2024, 6:42 a.m. from Launch Complex 9A.

For more information about the launch, click the button.

Launch to space Long March 6A | G60 Polar Group 01
Long March 6A | G60 Polar Group 01

Agency: N/A

Status: Launch Successful

Launch date: Aug. 6, 2024, 6:42 a.m. UTC

Rocket: Long March 6A

Launch pad: Launch Complex 9A

Location: Taiyuan Satellite Launch Center, People's Republic of China

...

Latest news about this satellite

News about space launch
Brightness of first Chinese broadband constellation satellites alarms astronomers

The first satellites of a Chinese broadband constellation are significantly brighter than those of Western systems, posing a new challenge for astronomers.

News about space launch
Chinese rocket stage breaks up into cloud of more than 700 pieces of space debris

HELSINKI — A Chinese Long March 6A rocket’s upper stage has fragmented into a cloud of over 700 pieces of space debris, adding to concerns about long-term orbital safety. China […]

News about space launch
China's Thousand Sails Megaconstellation Kicks Off with Dangerous Debris Field

China's Thousand Sails Megaconstellation Kicks Off with Dangerous Debris Field


Newsletter sign-up

Weekly statistics, charts and insights to help you stay on top of the space industry.